Temp
22 22 22 22 17 14 16 19 21 22 26 24 25 23 19 17 21 20 17 18 18 19 19 19 19 20 20 19 19 19 19 19 18 18 18 18 18 17 17 17 17 16 16 16 16 15 15 15 15
22 22 22 22 16 15 16 20 24 23 24 23 22 20 19 17 16 16 16 17 18 19 19 18 18 19 19 19 19 19 18 18 18 18 17 17 17 17 17 17 16 16 16 16 16 15 15 15 15
22 22 22 16 13 15 17 22 22 26 27 26 21 19 17 16 16 16 16 16 17 18 18 18 18 18 19 19 18 18 18 18 18 17 17 17 17 17 17 16 16 16 16 16 16 15 15 15 15
21 22 21 17 17 17 20 21 23 24 28 27 22 17 17 17 16 16 16 16 17 17 17 17 17 18 18 18 18 18 18 17 17 17 17 17 17 17 17 16 16 16 15 16 16 16 16 16 16
21 21 16 16 16 18 20 23 25 25 27 25 23 16 15 16 16 16 16 16 17 17 17 17 17 18 19 19 18 18 18 17 17 17 17 17 17 17 17 16 16 16 16 16 16 16 16 16 16
21 19 15 15 17 19 21 24 25 25 27 23 20 15 15 15 16 16 16 16 16 17 16 15 15 17 17 18 17 17 17 17 17 17 17 17 16 16 17 16 16 16 16 16 16 16 16 16 16
19 15 15 16 19 19 22 25 23 25 25 24 20 16 14 15 15 16 15 16 16 16 16 14 15 16 17 17 17 16 16 16 17 17 17 17 16 16 16 16 15 16 16 16 16 16 15 15 15
21 15 17 16 19 19 23 24 25 26 25 22 21 15 15 15 14 15 15 14 15 15 15 14 15 16 16 16 16 16 16 16 16 17 16 16 16 16 16 15 15 15 15 15 16 15 15 15 15
21 15 15 17 19 21 24 23 25 26 25 22 20 20 20 16 15 14 14 14 14 14 15 14 14 16 15 15 15 15 15 16 16 16 16 16 16 16 15 15 15 15 15 15 15 15 15 14 14
19 14 16 18 20 20 23 22 24 24 24 22 20 19 19 17 15 14 14 14 14 14 13 14 14 14 15 15 15 15 15 16 16 16 16 16 16 16 15 15 15 15 15 15 14 14 14 14 14
18 15 18 20 21 21 21 20 23 23 22 24 21 18 16 15 14 14 14 15 15 14 15 14 14 14 14 14 14 15 15 16 16 16 15 15 15 15 15 15 15 15 14 14 14 14 14 14 14
16 19 19 19 21 20 20 21 21 23 23 25 23 22 18 15 14 15 15 14 14 14 14 13 13 13 13 13 14 15 15 15 15 15 15 15 15 15 15 15 14 15 14 14 14 14 14 14 14
17 18 19 19 20 19 20 20 20 21 23 24 22 19 18 17 15 14 13 14 14 13 14 12 12 13 13 14 14 14 14 14 15 15 15 15 15 15 15 14 14 14 14 14 14 14 14 13 13
18 17 17 18 18 18 19 20 20 22 23 23 21 19 19 19 19 14 13 14 14 13 13 12 12 12 13 13 13 14 14 14 14 14 14 14 14 15 14 14 14 14 14 13 13 13 13 13 13
17 15 16 17 18 17 20 18 18 22 22 23 23 21 19 18 16 18 19 15 14 13 12 12 12 12 12 12 12 13 13 13 13 14 14 14 14 14 13 13 13 13 13 12 12 12 12 12 12
14 14 14 17 18 18 18 17 19 22 21 22 22 21 18 17 19 19 17 15 14 14 12 12 12 12 11 11 11 12 12 12 12 13 13 14 14 13 12 12 12 12 12 11 11 12 12 12 12
12 12 13 15 17 17 17 18 19 22 21 20 22 21 19 18 16 17 17 16 15 15 13 12 12 12 11 10 10 10 11 11 12 12 12 13 13 12 12 12 12 11 11 11 11 12 12 12 12
12 12 12 14 17 17 16 17 19 20 21 21 21 21 18 17 19 20 18 16 15 14 13 13 12 11 10 10 9 10 10 10 11 11 12 12 12 11 11 11 11 11 11 11 11 11 11 11 11
14 14 14 15 17 17 17 18 19 19 19 19 21 19 17 16 23 19 18 14 14 13 13 12 12 11 11 10 9 9 10 10 10 11 11 11 11 10 10 10 11 10 10 10 11 11 11 11 11
14 13 14 15 17 17 17 17 19 19 19 20 21 22 19 18 16 17 16 14 13 13 13 12 12 12 11 10 10 10 10 10 10 10 10 10 10 10 9 10 10 10 10 10 10 10 10 10 10
14 14 14 16 17 18 17 17 18 20 20 21 21 21 22 21 17 16 15 14 13 13 12 13 12 12 12 10 9 9 9 9 8 9 9 9 9 9 9 9 9 9 9 9 9 9 9 9 8
14 16 17 16 15 15 16 15 17 18 18 19 20 21 21 21 18 19 16 13 14 13 13 13 13 12 12 10 10 11 10 8 9 9 8 8 8 8 8 8 8 9 9 9 9 9 8 7 8
15 16 16 16 15 14 15 14 16 17 17 17 17 19 21 21 21 17 14 15 16 13 13 13 12 11 11 10 10 9 9 9 9 8 7 7 7 7 8 8 8 8 8 8 8 8 7 7 7
15 14 14 13 13 13 15 14 15 16 17 17 17 19 21 22 20 20 18 14 13 11 11 11 11 11 11 10 9 8 8 9 8 7 7 7 7 7 7 7 7 8 8 7 7 7 6 6 6
13 12 12 12 12 13 16 15 15 18 17 17 17 18 20 20 20 20 16 13 11 10 10 10 11 11 10 9 9 8 9 8 8 8 7 7 7 7 7 7 7 7 7 7 7 7 6 6 6
12 12 12 12 13 14 16 15 16 17 16 14 14 15 17 18 20 19 17 14 12 11 11 10 10 10 10 9 9 9 9 8 8 8 7 7 7 6 6 6 7 6 7 6 6 6 6 6 5
13 11 14 12 13 12 14 14 16 16 14 12 12 12 12 16 19 19 18 14 10 8 8 8 9 10 10 9 8 7 7 8 7 7 6 6 6 5 6 6 6 6 5 5 5 5 5 5 4
12 14 11 11 11 11 13 13 13 10 11 11 10 10 10 13 16 16 13 10 8 7 6 7 8 9 8 7 7 7 7 7 8 7 7 6 5 5 6 6 5 4 5 5 4 4 4 4 4
12 12 11 10 10 11 12 12 10 10 10 10 10 11 11 11 11 11 10 8 7 6 6 6 8 9 9 6 7 7 7 7 6 7 6 6 5 6 5 4 3 6 5 4 4 3 3 4 3
8 6 6 9 9 8 9 10 9 9 10 10 10 11 12 12 11 10 9 8 7 7 7 8 8 8 7 7 7 7 7 6 6 6 6 4 5 5 4 3 5 5 4 3 3 3 3 3 3
Height
1517 1516 1515 1515 1527 1530 1533 1516 1495 1489 1484 1478 1477 1479 1483 1485 1485 1501 1493 1498 1504 1506 1509 1511 1514 1516 1520 1522 1524 1527 1529 1531 1532 1533 1534 1534 1535 1537 1537 1537 1538 1538 1538 1538 1539 1539 1540 1539 1539
1516 1515 1515 1514 1532 1544 1533 1503 1494 1487 1481 1479 1478 1481 1482 1489 1489 1490 1494 1499 1504 1506 1508 1510 1513 1515 1518 1521 1523 1526 1529 1530 1532 1532 1533 1534 1535 1536 1536 1536 1537 1537 1537 1538 1538 1538 1539 1539 1538
1516 1514 1515 1519 1533 1537 1526 1497 1492 1486 1483 1477 1479 1481 1485 1487 1489 1489 1493 1497 1501 1505 1507 1509 1511 1513 1516 1519 1522 1524 1527 1530 1531 1532 1532 1533 1534 1535 1535 1535 1535 1536 1536 1537 1537 1537 1537 1537 1536
1514 1513 1514 1523 1526 1511 1502 1498 1493 1486 1481 1475 1476 1482 1484 1485 1485 1486 1490 1496 1500 1503 1506 1509 1511 1512 1514 1517 1520 1524 1526 1529 1529 1531 1533 1533 1533 1534 1534 1534 1534 1535 1535 1536 1535 1535 1535 1535 1534
1512 1511 1521 1525 1519 1505 1495 1494 1492 1485 1478 1474 1471 1480 1483 1485 1488 1489 1490 1495 1498 1502 1504 1507 1510 1511 1513 1516 1519 1522 1525 1527 1528 1530 1531 1532 1533 1533 1533 1534 1534 1534 1534 1535 1534 1534 1533 1532 1532
1512 1512 1528 1531 1514 1500 1490 1490 1487 1478 1472 1472 1473 1479 1483 1485 1484 1487 1491 1494 1498 1500 1502 1504 1508 1510 1513 1515 1518 1521 1524 1525 1527 1529 1530 1531 1532 1532 1532 1533 1533 1533 1533 1534 1533 1532 1532 1531 1531
1510 1515 1522 1518 1507 1500 1488 1488 1484 1480 1474 1473 1473 1480 1485 1485 1484 1485 1489 1493 1496 1498 1502 1503 1504 1507 1510 1514 1517 1520 1522 1524 1526 1528 1529 1530 1531 1531 1531 1532 1533 1532 1532 1531 1531 1531 1531 1530 1529
1507 1508 1509 1509 1503 1496 1482 1484 1482 1480 1478 1476 1473 1476 1480 1480 1482 1486 1489 1492 1494 1496 1499 1502 1503 1505 1508 1510 1514 1517 1520 1522 1524 1525 1528 1528 1529 1530 1531 1531 1531 1531 1530 1529 1529 1529 1529 1528 1527
1504 1512 1514 1504 1499 1488 1479 1481 1478 1478 1478 1474 1473 1470 1469 1472 1478 1483 1485 1488 1490 1492 1494 1497 1501 1504 1506 1509 1511 1514 1517 1519 1522 1523 1525 1527 1528 1529 1529 1529 1529 1530 1529 1529 1528 1527 1527 1526 1525
1500 1510 1502 1490 1488 1485 1479 1480 1477 1474 1473 1471 1470 1469 1467 1467 1471 1473 1476 1478 1483 1486 1488 1493 1498 1501 1503 1506 1508 1511 1513 1515 1519 1521 1523 1525 1526 1527 1528 1528 1528 1528 1528 1528 1527 1526 1526 1525 1524
1495 1499 1492 1488 1485 1484 1480 1476 1475 1469 1470 1467 1465 1466 1468 1472 1469 1469 1471 1472 1476 1481 1486 1489 1495 1499 1501 1504 1506 1508 1510 1512 1515 1518 1521 1522 1523 1525 1526 1526 1526 1526 1526 1527 1526 1526 1525 1525 1524
1498 1490 1488 1485 1482 1480 1476 1473 1469 1467 1466 1464 1460 1460 1462 1467 1469 1466 1465 1469 1473 1479 1482 1486 1491 1496 1500 1503 1504 1507 1509 1510 1512 1515 1518 1519 1521 1522 1523 1525 1525 1525 1525 1526 1526 1525 1524 1523 1522
1490 1487 1484 1481 1479 1474 1471 1466 1465 1462 1459 1460 1456 1455 1457 1460 1464 1467 1470 1468 1470 1474 1477 1480 1485 1489 1492 1496 1501 1502 1506 1508 1510 1512 1514 1517 1519 1520 1521 1522 1522 1522 1522 1523 1523 1522 1521 1520 1519
1487 1484 1480 1476 1473 1470 1467 1456 1459 1453 1454 1454 1453 1452 1452 1451 1454 1460 1462 1464 1465 1469 1472 1476 1482 1487 1490 1492 1495 1497 1499 1503 1507 1509 1511 1513 1515 1517 1519 1520 1520 1519 1520 1520 1520 1519 1519 1518 1517
1485 1484 1474 1471 1467 1466 1459 1450 1451 1444 1447 1448 1447 1445 1446 1448 1451 1449 1450 1454 1460 1466 1467 1470 1478 1484 1488 1491 1494 1494 1499 1502 1504 1505 1508 1510 1512 1513 1516 1517 1517 1517 1517 1517 1517 1517 1517 1517 1516
1488 1483 1480 1463 1463 1458 1460 1441 1443 1440 1442 1440 1438 1438 1438 1439 1439 1443 1445 1450 1454 1460 1461 1466 1472 1479 1483 1487 1490 1493 1498 1501 1504 1506 1506 1507 1508 1510 1511 1514 1514 1515 1515 1515 1515 1515 1515 1515 1514
1487 1485 1474 1469 1460 1458 1456 1437 1435 1433 1434 1432 1429 1430 1429 1431 1435 1437 1440 1442 1447 1451 1453 1458 1464 1471 1478 1483 1488 1491 1496 1499 1501 1504 1505 1505 1506 1507 1508 1510 1512 1512 1513 1512 1513 1513 1513 1512 1512
1482 1481 1471 1468 1458 1454 1455 1433 1431 1430 1427 1425 1421 1419 1418 1419 1421 1425 1428 1431 1440 1445 1447 1452 1458 1463 1471 1478 1484 1488 1492 1495 1498 1500 1503 1503 1504 1505 1506 1507 1509 1510 1511 1510 1510 1511 1511 1510 1510
1469 1468 1461 1455 1455 1456 1449 1432 1417 1422 1421 1420 1414 1411 1411 1410 1410 1416 1422 1427 1435 1439 1442 1444 1449 1455 1461 1467 1474 1480 1484 1488 1494 1497 1499 1500 1501 1503 1505 1505 1505 1507 1508 1508 1508 1509 1508 1508 1507
1467 1465 1456 1447 1451 1451 1443 1429 1409 1412 1411 1410 1409 1406 1406 1404 1410 1412 1415 1420 1424 1427 1432 1437 1442 1446 1453 1459 1466 1473 1480 1485 1490 1493 1495 1498 1499 1501 1503 1503 1504 1505 1505 1505 1505 1505 1504 1504 1504
1458 1454 1454 1450 1444 1439 1440 1427 1410 1401 1402 1400 1402 1402 1400 1398 1397 1399 1405 1410 1415 1419 1422 1427 1432 1438 1444 1453 1461 1468 1475 1481 1482 1487 1491 1494 1497 1498 1500 1501 1502 1502 1502 1502 1502 1501 1501 1501 1501
1450 1440 1442 1442 1447 1446 1437 1438 1400 1402 1395 1394 1394 1394 1392 1392 1392 1389 1391 1399 1402 1408 1417 1422 1426 1432 1439 1447 1454 1456 1461 1468 1476 1482 1488 1491 1495 1496 1497 1499 1499 1500 1500 1500 1499 1498 1499 1499 1497
1431 1440 1442 1439 1440 1444 1420 1443 1396 1396 1390 1389 1386 1385 1383 1384 1384 1384 1386 1385 1390 1399 1403 1411 1420 1428 1434 1442 1449 1454 1459 1467 1473 1479 1484 1489 1492 1493 1494 1496 1497 1497 1497 1497 1497 1497 1497 1497 1495
1430 1434 1437 1438 1438 1443 1407 1432 1423 1380 1385 1381 1380 1377 1376 1374 1376 1376 1375 1380 1385 1393 1399 1405 1412 1422 1432 1439 1445 1450 1456 1462 1467 1473 1480 1485 1489 1491 1492 1493 1494 1494 1494 1494 1495 1495 1495 1494 1493
1431 1440 1446 1446 1435 1423 1399 1418 1400 1361 1379 1377 1375 1372 1369 1365 1367 1370 1372 1377 1382 1385 1388 1396 1404 1411 1424 1431 1440 1447 1455 1462 1466 1471 1475 1480 1484 1487 1489 1491 1491 1492 1490 1492 1492 1493 1493 1492 1492
1420 1421 1434 1421 1420 1409 1399 1402 1374 1371 1375 1374 1370 1364 1359 1354 1353 1355 1358 1361 1364 1371 1377 1386 1395 1402 1415 1424 1434 1438 1447 1456 1463 1469 1475 1477 1482 1485 1487 1487 1489 1488 1489 1489 1490 1491 1490 1490 1491
1405 1419 1395 1415 1408 1415 1399 1381 1371 1367 1370 1373 1372 1364 1357 1349 1343 1342 1346 1350 1359 1370 1378 1384 1389 1402 1411 1422 1430 1442 1447 1447 1457 1465 1474 1476 1478 1483 1484 1486 1487 1487 1487 1488 1488 1489 1489 1490 1490
1405 1399 1413 1408 1407 1403 1391 1384 1380 1380 1380 1376 1375 1370 1361 1350 1340 1337 1347 1355 1366 1375 1380 1387 1396 1404 1410 1420 1425 1434 1442 1451 1453 1462 1468 1472 1476 1479 1482 1484 1483 1482 1486 1487 1487 1487 1488 1489 1489
1401 1395 1398 1396 1391 1385 1385 1378 1379 1382 1380 1380 1374 1369 1365 1356 1352 1350 1352 1359 1369 1378 1384 1390 1397 1405 1410 1416 1424 1430 1441 1445 1453 1458 1464 1468 1471 1474 1479 1480 1478 1483 1484 1485 1485 1487 1486 1487 1489
1407 1409 1409 1391 1387 1388 1378 1378 1378 1384 1380 1374 1376 1374 1370 1364 1365 1363 1362 1367 1371 1379 1386 1396 1399 1403 1406 1411 1421 1426 1428 1444 1451 1457 1462 1465 1467 1471 1475 1473 1479 1480 1481 1483 1484 1486 1485 1486 1487
Wind_Speed
8 7 6 5 4 5 4 7 5 9 1 5 9 10 9 5 3 4 13 26 27 29 28 27 25 24 22 20 18 17 15 14 12 11 10 8 7 5 4 3 1 1 2 3 3 4 4 5 5
8 9 5 1 4 2 5 5 6 7 7 17 13 9 5 3 6 13 21 23 25 27 28 28 26 25 23 21 19 17 15 14 12 10 9 8 6 5 4 3 2 2 3 3 3 4 4 5 5
13 12 2 3 3 5 5 4 7 21 13 6 7 9 6 12 15 25 21 28 26 25 27 29 28 27 25 22 19 17 15 13 12 10 9 7 6 4 3 3 2 1 2 2 2 2 3 4 5
10 2 2 2 8 8 6 8 16 15 17 3 16 7 6 5 24 22 29 27 26 24 28 30 28 27 26 23 20 17 15 13 11 10 8 7 6 4 2 2 1 1 0 1 2 2 3 4 4
10 2 1 2 8 7 7 11 22 15 8 8 12 8 8 14 19 25 27 26 24 23 30 30 29 27 25 22 19 17 16 13 11 10 9 7 6 5 4 4 3 2 0 1 3 4 5 6 6
3 1 2 4 8 7 9 19 24 25 21 10 7 9 7 18 23 30 23 26 23 23 30 29 27 26 24 21 18 16 14 13 12 11 10 8 7 7 6 5 4 3 2 4 5 6 7 8 9
4 4 6 7 15 11 15 15 11 9 9 6 13 5 7 21 26 30 26 23 25 24 30 30 30 28 24 20 18 16 15 15 14 12 11 10 9 7 6 5 4 3 3 4 6 6 7 7 8
7 5 5 6 9 13 13 15 16 19 11 7 3 7 8 29 31 29 26 25 25 26 28 31 30 29 26 23 21 19 18 17 16 14 12 11 9 8 7 5 4 4 3 3 4 4 5 6 8
7 1 4 6 5 11 28 5 24 20 10 9 3 7 9 35 34 30 30 29 28 28 31 32 31 28 25 24 23 22 20 19 18 16 14 12 11 9 7 5 5 4 3 3 2 3 4 6 7
1 3 7 6 7 10 24 11 19 5 10 8 5 5 11 36 38 39 39 37 35 32 33 33 30 29 28 27 26 25 24 22 20 18 15 14 11 9 7 6 5 3 2 2 1 2 4 5 6
4 6 5 10 24 22 12 10 18 6 3 15 10 15 26 36 39 40 39 37 37 33 29 33 31 30 29 29 28 27 26 24 22 19 17 14 11 10 9 8 6 4 3 2 2 2 3 4 3
7 23 20 15 19 21 13 18 10 16 13 22 17 16 32 38 40 42 41 39 37 34 30 32 32 32 30 30 30 28 27 25 23 21 17 14 12 11 10 7 6 5 4 2 2 2 2 3 6
14 12 18 21 28 27 25 18 18 18 30 19 15 23 32 37 39 40 38 36 35 35 34 35 35 35 34 33 31 30 27 25 23 21 17 14 13 13 11 8 7 6 4 3 2 1 4 6 7
11 22 19 18 22 22 19 22 10 18 29 28 16 24 33 37 42 41 41 40 37 36 36 34 36 34 34 35 34 32 30 27 24 21 18 17 16 14 11 10 8 6 4 2 1 3 4 6 7
9 16 18 14 17 8 28 21 15 30 30 30 33 27 34 39 43 45 44 44 40 38 37 35 36 33 34 33 33 32 29 26 25 23 20 18 17 15 12 11 9 6 4 2 1 3 5 6 7
10 10 9 4 2 8 7 22 13 34 29 29 34 32 36 41 45 45 45 45 43 40 40 39 37 34 36 35 34 32 27 24 24 22 21 20 18 15 13 11 8 6 4 2 1 3 4 5 6
5 9 12 6 10 8 10 18 8 25 23 26 35 32 39 43 45 46 46 45 44 41 44 45 43 39 39 35 33 30 27 25 25 23 22 21 18 16 14 11 8 6 4 2 3 4 4 5 6
7 7 7 9 3 7 10 26 18 24 27 23 31 34 39 45 50 49 49 48 42 43 45 45 45 44 42 38 35 34 30 28 26 24 22 21 19 16 14 12 10 6 4 3 3 4 5 6 6
8 11 20 14 8 11 18 26 26 13 16 17 26 25 34 44 47 51 49 47 42 47 47 48 47 46 46 46 43 39 36 32 28 25 23 22 19 17 14 12 9 7 4 2 3 3 4 3 4
18 22 25 23 16 17 19 28 28 18 10 21 26 29 29 39 36 45 51 50 50 52 52 51 49 47 48 48 47 41 37 33 29 26 24 21 19 17 14 12 9 6 4 3 3 3 4 5 6
21 25 21 24 15 18 14 27 24 24 18 20 20 25 28 35 43 49 53 54 54 56 57 55 53 52 48 49 46 40 36 33 32 28 25 23 20 17 14 12 9 6 4 3 2 3 4 6 7
22 18 20 21 14 16 7 18 32 18 21 17 20 28 30 25 39 49 59 56 60 60 59 58 56 54 50 48 48 47 46 42 35 30 27 24 21 18 15 12 9 7 5 3 1 3 5 7 8
28 8 14 18 16 9 26 6 25 12 18 12 9 23 30 33 34 45 52 64 65 64 63 63 60 54 50 47 47 46 44 39 34 30 27 24 21 19 16 13 10 7 5 2 0 3 4 6 8
8 11 16 12 9 14 33 9 16 25 11 3 8 25 35 38 30 44 53 58 62 61 63 65 61 55 47 45 47 46 42 39 35 32 29 25 22 19 17 13 11 8 6 3 1 2 4 6 7
8 7 8 8 11 16 23 10 21 24 7 16 18 23 34 38 26 33 46 45 52 59 65 65 62 57 50 48 46 44 38 35 32 32 31 28 24 21 17 14 10 9 6 3 2 1 2 5 5
12 22 8 17 13 12 13 13 21 10 3 10 15 13 20 36 39 34 46 59 64 67 69 67 64 59 51 47 46 44 39 34 30 29 28 25 22 20 17 14 12 9 7 4 2 1 1 3 4
19 11 25 19 24 14 13 16 13 9 3 11 14 22 23 13 18 26 43 59 57 55 56 60 62 54 46 45 44 40 38 35 33 30 26 23 22 20 15 13 12 10 7 5 4 1 0 1 3
12 1 6 9 16 26 16 19 11 5 7 9 10 13 26 15 4 12 34 36 37 41 45 49 52 51 45 45 44 41 39 33 33 29 28 27 24 18 15 15 13 8 7 7 4 3 2 0 1
6 8 7 4 5 14 18 12 6 3 1 4 8 15 21 14 15 24 27 32 34 35 40 46 47 42 40 40 44 42 37 37 34 31 31 27 21 17 17 17 10 9 8 8 6 5 3 2 2
5 6 8 4 3 4 5 3 8 8 6 5 6 12 14 11 12 18 25 33 35 36 37 38 45 47 43 47 46 43 41 37 33 32 29 25 21 19 18 12 12 12 10 9 8 6 5 4 3
Wind_Direction
358 334 300 316 37 61 271 274 289 292 294 29 101 134 140 48 130 190 143 162 180 175 171 173 174 173 171 167 165 164 164 165 164 162 165 162 163 170 171 176 201 261 290 311 319 328 326 330 332
351 336 322 120 94 18 269 255 333 306 136 109 78 87 56 97 107 143 149 170 180 177 177 175 176 176 175 173 172 171 171 172 174 172 176 171 177 190 192 204 231 259 281 295 302 304 305 304 305
330 335 293 115 143 193 222 248 335 311 278 203 111 79 114 133 154 157 163 163 176 180 182 181 179 180 178 179 177 176 177 180 180 182 182 182 187 206 214 223 227 253 283 301 309 303 305 312 317
337 309 144 107 248 255 245 288 291 286 279 252 138 85 111 142 166 176 169 171 177 184 186 184 182 182 182 181 180 180 181 188 187 181 181 180 188 199 207 203 189 193 294 326 337 335 332 330 320
334 226 75 261 257 269 276 287 302 298 260 184 173 159 121 158 170 176 173 178 187 189 189 188 188 188 186 184 182 182 184 186 183 183 182 182 189 181 183 190 176 175 190 300 305 305 305 303 299
302 65 32 256 266 282 281 295 298 281 264 154 101 105 156 171 184 181 177 178 186 197 186 180 183 186 185 186 184 185 185 186 184 182 184 184 184 179 178 181 191 208 253 285 294 300 304 306 306
180 105 223 242 276 288 283 319 300 322 318 355 146 99 147 175 186 182 182 186 191 196 191 186 185 187 187 186 185 186 187 186 185 188 188 184 181 184 189 196 219 253 274 286 298 318 321 321 319
281 134 215 236 274 279 280 313 319 339 303 116 160 172 175 185 187 177 181 188 196 197 203 192 191 189 186 185 188 187 186 187 189 191 190 187 186 197 204 222 242 265 279 287 321 335 338 335 336
258 191 237 238 243 269 284 285 290 309 325 335 294 242 235 186 183 183 185 188 197 199 207 197 196 190 189 190 188 186 187 190 193 193 190 190 194 203 216 228 240 249 264 291 330 335 343 347 344
198 189 239 214 256 273 281 265 281 302 313 289 297 241 201 182 186 187 189 191 196 200 197 200 197 193 192 192 191 190 192 193 197 196 193 197 199 214 221 228 220 226 241 281 328 344 340 340 345
240 215 237 278 277 284 289 293 287 253 230 280 236 186 181 188 192 196 198 202 201 199 202 201 197 197 196 195 193 194 195 196 197 196 194 201 203 215 217 211 202 199 233 253 294 322 326 337 343
286 282 277 282 292 304 290 296 277 271 277 289 271 228 189 194 201 204 202 202 202 199 201 205 196 198 196 198 197 199 197 197 197 200 195 201 212 216 216 204 200 199 220 245 278 316 347 9 12
283 266 283 297 299 290 296 276 271 273 284 289 280 198 198 202 205 209 210 207 205 201 202 205 196 198 197 199 200 199 198 200 200 200 194 203 211 214 211 200 205 211 218 243 273 358 18 19 9
298 298 292 294 292 291 285 280 277 260 273 277 252 212 207 211 213 209 210 212 210 205 204 206 196 199 199 198 200 201 199 200 201 200 199 202 209 211 204 202 208 215 222 244 330 26 14 7 358
290 302 299 282 273 265 275 275 252 271 276 269 266 244 218 216 210 218 221 212 213 210 208 204 198 203 200 199 203 202 201 201 203 200 200 204 206 205 197 204 209 211 221 248 9 2 6 1 356
300 292 279 176 254 255 221 264 280 276 270 268 262 248 222 215 221 222 221 216 214 214 209 201 196 206 204 202 206 204 203 203 204 202 201 204 205 198 197 205 210 209 216 238 298 336 354 355 356
212 266 249 286 237 255 197 282 234 280 275 251 259 247 230 222 218 220 222 219 216 212 209 202 199 204 206 203 208 208 211 210 204 203 203 204 203 196 195 201 207 213 221 251 303 331 347 360 1
203 243 243 241 257 255 260 276 270 263 268 270 266 246 222 215 220 220 221 218 212 210 211 202 199 202 204 202 205 208 211 212 205 203 203 204 201 196 195 196 205 211 225 250 299 326 348 2 14
265 255 264 266 252 282 282 280 281 261 262 271 279 248 216 213 230 219 217 216 207 210 208 203 199 203 205 201 203 207 208 206 203 201 202 204 200 196 195 198 203 209 224 262 305 334 355 5 23
245 255 263 278 270 261 272 272 278 272 255 255 262 261 226 220 213 217 214 212 209 210 208 204 203 204 206 206 206 209 207 204 203 201 199 200 200 197 195 199 204 209 219 253 291 338 2 9 29
239 243 259 260 282 275 290 281 283 280 269 255 262 266 250 223 209 212 209 208 208 210 208 207 206 205 205 206 204 204 206 205 199 200 199 197 197 196 196 198 199 204 210 244 297 357 16 23 38
249 236 255 270 278 274 171 276 282 284 266 259 258 263 264 248 219 217 209 201 209 212 209 209 208 204 204 205 204 204 202 198 200 199 197 196 193 194 195 197 194 199 211 233 341 3 13 38 37
248 278 271 278 275 290 271 238 279 263 270 266 250 260 264 254 234 216 205 208 211 210 208 207 205 202 203 202 206 202 202 200 200 196 196 194 192 190 192 192 193 198 206 205 273 19 30 32 34
276 285 288 285 263 255 259 185 267 270 252 271 255 250 256 258 242 230 223 206 204 202 203 203 201 200 200 202 204 204 200 200 196 195 194 193 193 190 189 189 190 194 199 188 135 48 33 32 28
234 267 258 248 235 242 259 226 234 266 295 284 275 269 268 263 248 227 210 197 196 198 200 201 199 197 197 199 201 203 201 203 201 199 195 191 190 190 188 187 187 196 184 197 154 78 40 38 28
206 222 221 236 239 247 237 229 238 232 274 18 342 313 277 265 259 245 213 204 203 201 201 198 197 196 195 198 202 198 196 197 204 204 199 195 192 190 186 183 194 185 188 183 184 169 47 37 30
252 221 225 238 260 273 253 267 294 258 337 22 359 354 346 321 272 247 211 203 195 189 189 190 190 192 192 196 196 198 197 193 198 195 201 194 191 188 185 188 191 188 173 185 204 196 127 50 29
225 90 228 226 233 243 248 255 250 23 14 19 351 345 345 360 8 164 173 179 176 179 179 180 187 190 187 195 194 192 195 200 191 194 200 195 190 187 189 193 185 174 195 200 198 205 200 133 338
265 238 250 265 213 230 241 248 166 137 98 15 338 355 17 40 103 135 154 158 164 170 171 177 184 188 193 197 192 190 196 193 193 193 194 189 188 187 195 192 168 215 203 202 202 202 195 218 258
57 18 10 287 299 287 289 236 22 3 332 27 340 347 30 77 123 140 152 159 163 170 177 185 191 196 196 194 194 195 189 193 193 194 193 189 188 189 201 164 207 209 200 199 196 204 205 213 226